This is the latest recevied weather packets stored in our database for station/object AA0PB. If no packets are shown the sender has not sent any weather packets the latest 10 day(s).
| Time | Temp. | Humidity | Pressure | Rain* | Wind** | Luminosity | Snow |
|---|---|---|---|---|---|---|---|
| 1777840844 | 31.67° C | 31% | 1010.4 hPa | 0 mm | - | 685 W/m² | - |
| 1777840541 | 30.56° C | 33% | 1010.6 hPa | 0 mm | - | 688 W/m² | - |
| 1777840238 | 30.56° C | 32% | 1010.5 hPa | 0 mm | - | 690 W/m² | - |
| 1777839936 | 31.11° C | 34% | 1010.7 hPa | 0 mm | - | 690 W/m² | - |
| 1777839634 | 31.11° C | 33% | 1010.6 hPa | 0 mm | - | 690 W/m² | - |
| 1777839332 | 31.11° C | 32% | 1010.6 hPa | 0 mm | - | 691 W/m² | - |
| 1777839028 | 30.56° C | 33% | 1011 hPa | 0 mm | - | 691 W/m² | - |
| 1777838725 | 31.11° C | 35% | 1010.6 hPa | 0 mm | - | 691 W/m² | - |
| 1777838421 | 30.56° C | 37% | 1010.7 hPa | 0 mm | - | 690 W/m² | - |
| 1777838119 | 30.56° C | 35% | 1010.8 hPa | 0 mm | - | 688 W/m² | - |
| 1777837815 | 30° C | 35% | 1011 hPa | 0 mm | - | 687 W/m² | - |
| 1777837513 | 30° C | 38% | 1011.1 hPa | 0 mm | - | 81 W/m² | - |
| 1777837212 | 28.89° C | 41% | 1011.1 hPa | 0 mm | - | 683 W/m² | - |
| 1777836909 | 29.44° C | 38% | 1011 hPa | 0 mm | - | 680 W/m² | - |
| 1777836604 | 28.33° C | 39% | 1011.1 hPa | 0 mm | - | 678 W/m² | - |
| 1777836301 | 28.89° C | 40% | 1011.1 hPa | 0 mm | - | 676 W/m² | - |
| 1777835996 | 28.89° C | 36% | 1011.4 hPa | 0 mm | - | 673 W/m² | - |
| 1777835694 | 29.44° C | 35% | 1011.4 hPa | 0 mm | - | 669 W/m² | - |
| 1777835390 | 28.89° C | 37% | 1011.5 hPa | 0 mm | - | 665 W/m² | - |
| 1777835088 | 28.89° C | 37% | 1011.5 hPa | 0 mm | - | 662 W/m² | - |
| 1777834785 | 29.44° C | 39% | 1011.5 hPa | 0 mm | - | 654 W/m² | - |
| 1777834481 | 28.89° C | 37% | 1011.6 hPa | 0 mm | - | 652 W/m² | - |
| 1777834180 | 28.89° C | 37% | 1011.6 hPa | 0 mm | - | 647 W/m² | - |
| 1777833877 | 28.33° C | 37% | 1011.6 hPa | 0 mm | - | 640 W/m² | - |
| 1777833573 | 27.78° C | 39% | 1011.6 hPa | 0 mm | - | 636 W/m² | - |
* Rain latest hour (hover to see other rain measurements)
** Current wind speed in m/s (hover to see current wind gust speed)